This is the latest recevied weather packets stored in our database for station/object DK8HC-WX. If no packets are shown the sender has not sent any weather packets the latest 1 day(s).
| Time | Temp. | Humidity | Pressure | Rain* | Wind** | Luminosity | Snow |
|---|---|---|---|---|---|---|---|
| 1778071922 | 9.44° C | 100% | 1037.5 hPa | - | - | - | - |
| 1778071322 | 9.44° C | 100% | 1037.6 hPa | - | - | - | - |
| 1778070722 | 8.89° C | 100% | 1037.5 hPa | - | - | - | - |
| 1778070122 | 9.44° C | 100% | 1037.5 hPa | - | - | - | - |
| 1778069522 | 8.89° C | 100% | 1037.5 hPa | - | - | - | - |
| 1778068922 | 8.89° C | 100% | 1037.5 hPa | - | - | - | - |
| 1778061721 | 8.33° C | 100% | 1038 hPa | - | - | - | - |
| 1778061121 | 7.78° C | 100% | 1038 hPa | - | - | - | - |
| 1778060521 | 7.78° C | 100% | 1037.9 hPa | - | - | - | - |
| 1778059921 | 7.78° C | 100% | 1037.9 hPa | - | - | - | - |
| 1778059321 | 8.33° C | 100% | 1038 hPa | - | - | - | - |
| 1778058721 | 7.78° C | 100% | 1037.8 hPa | - | - | - | - |
| 1778058121 | 8.33° C | 100% | 1038 hPa | - | - | - | - |
| 1778057521 | 7.78° C | 100% | 1037.5 hPa | - | - | - | - |
| 1778056921 | 7.22° C | 100% | 1037.3 hPa | - | - | - | - |
| 1778056321 | 7.22° C | 100% | 1036.9 hPa | - | - | - | - |
| 1778055721 | 7.22° C | 100% | 1036.7 hPa | - | - | - | - |
| 1778055121 | 7.22° C | 100% | 1036.7 hPa | - | - | - | - |
| 1778054521 | 7.22° C | 100% | 1036.5 hPa | - | - | - | - |
| 1778050320 | 7.78° C | 100% | 1035.1 hPa | - | - | - | - |
| 1778049720 | 7.78° C | 100% | 1034.9 hPa | - | - | - | - |
| 1778048520 | 7.78° C | 100% | 1034.2 hPa | - | - | - | - |
| 1778047920 | 7.78° C | 100% | 1033.9 hPa | - | - | - | - |
| 1778047320 | 7.78° C | 100% | 1033.6 hPa | - | - | - | - |
| 1778046720 | 7.78° C | 100% | 1033.2 hPa | - | - | - | - |
* Rain since midnight (hover to see other rain measurements)
** Current wind speed in m/s (hover to see current wind gust speed)